Location: Hochstatterhof
(48.7256°N, 10.3487°E)
Time: 03:05:02
(UTC+00:00)

NOSS 2-3 (D) - Pass Details

Date: 26 September 2023
Orbit: 506 x 1696 km, 63.3° (Epoch: 06 November)

Event Time Altitude Azimuth Distance (km) Brightness Sun altitude
Exits shadow 02:23:33 23° 316° (NW) 1,809 5.8 -26.9°
Maximum altitude 02:27:28 84° 230° (SW) 1,046 4.5 -26.4°
Drops below altitude 10° 02:35:21 10° 144° (SE) 3,311 7.3 -25.3°
Sets 02:38:36 0° 144° (SE) 4,453 8.0 -24.8°
